Weather History for Clinton-Sherman, OK

Change the Weather History Date:

Wednesday, May 22, 2013

  Actual Average Record
Temperature  
Mean Temperature 70 °F -  
Max Temperature 87 °F 81 °F 99 °F (2005)
Min Temperature 53 °F 57 °F 48 °F (2001)
Cooling Degree Days 5    
Growing Degree Days 20 (Base 50)    
Moisture  
Dew Point 49 °F    
Average Humidity 53    
Maximum Humidity 89    
Minimum Humidity 21    
Precipitation  
Precipitation 0.00 in - - ()
Sea Level Pressure  
Sea Level Pressure 29.86 in    
Wind  
Wind Speed 10 mph (SSE)    
Max Wind Speed 21 mph    
Max Gust Speed 24 mph    
Visibility 10 miles    
Events      
Averages and records for this station are not official NWS values.
T = Trace of Precipitation, MM = Missing Value Source: NWS Daily Summary

Daily Weather History Graph

Daily Weather History Graph

Search for Another Location

Airport:

Trip Planner

Search our weather history database for the weather conditions in past years. The results will help you decide how hot, cold, wet, or windy it might be!

Date:

Astronomy

May. 22, 2013 Rise Set
Actual Time 6:27 AM CDT 8:39 PM CDT
Civil Twilight 5:58 AM CDT 9:08 PM CDT
Nautical Twilight 5:23 AM CDT 9:43 PM CDT
Astronomical Twilight 4:45 AM CDT 10:22 PM CDT
Moon 6:08 PM CDT (5/22) 4:26 AM CDT (5/22)
Length of Visible Light 15h 09m
Length of Day
14h 12m
Waxing Gibbous, 91% of the Moon is Illuminated
May 22
Waxing Gibbous
May 24
Full
May 31
Last Quarter
Jun 8
New
Jun 16
First Quarter

Hourly Weather History & Observations

Time (CDT) Temp. Dew Point Humidity Pressure Visibility Wind Dir Wind Speed Gust Speed Precip Events Conditions
12:53 AM 60.1 °F 51.1 °F 72% 29.83 in 10.0 mi South 11.5 mph - N/A   Clear
1:53 AM 57.9 °F 52.0 °F 81% 29.84 in 10.0 mi SSW 12.7 mph - N/A   Clear
2:53 AM 55.9 °F 51.1 °F 84% 29.83 in 10.0 mi SW 10.4 mph - N/A   Clear
3:53 AM 55.0 °F 51.1 °F 86% 29.81 in 10.0 mi SSW 6.9 mph - N/A   Clear
4:53 AM 55.9 °F 51.1 °F 84% 29.84 in 10.0 mi SW 11.5 mph - N/A   Clear
5:53 AM 53.1 °F 50.0 °F 89% 29.88 in 10.0 mi WNW 4.6 mph - N/A   Clear
6:53 AM 54.0 °F 48.0 °F 80% 29.88 in 10.0 mi NW 6.9 mph - N/A   Clear
7:53 AM 59.0 °F 48.0 °F 67% 29.89 in 10.0 mi NNW 10.4 mph - N/A   Clear
8:53 AM 64.0 °F 46.9 °F 54% 29.91 in 10.0 mi NNE 12.7 mph - N/A   Clear
9:53 AM 68.0 °F 46.9 °F 47% 29.93 in 10.0 mi NE 8.1 mph - N/A   Clear
10:53 AM 71.1 °F 48.0 °F 44% 29.94 in 10.0 mi East 6.9 mph - N/A   Clear
11:53 AM 73.9 °F 48.0 °F 40% 29.93 in 10.0 mi SSE 5.8 mph - N/A   Clear
12:53 PM 77.0 °F 48.0 °F 36% 29.92 in 10.0 mi Variable 4.6 mph - N/A   Clear
1:53 PM 80.1 °F 48.0 °F 32% 29.89 in 10.0 mi ESE 5.8 mph - N/A   Clear
2:53 PM 84.9 °F 46.0 °F 26% 29.85 in 10.0 mi South 11.5 mph 20.7 mph N/A   Clear
3:53 PM 84.9 °F 46.0 °F 26% 29.84 in 10.0 mi South 12.7 mph 23.0 mph N/A   Clear
4:53 PM 86.0 °F 45.0 °F 24% 29.81 in 10.0 mi South 15.0 mph 23.0 mph N/A   Clear
5:53 PM 87.1 °F 43.0 °F 21% 29.81 in 10.0 mi SSE 20.7 mph 24.2 mph N/A   Clear
6:53 PM 84.9 °F 44.1 °F 24% 29.80 in 10.0 mi SSE 15.0 mph 23.0 mph N/A   Clear
7:53 PM 82.0 °F 46.0 °F 28% 29.80 in 10.0 mi SE 12.7 mph - N/A   Clear
8:53 PM 75.0 °F 53.1 °F 46% 29.81 in 10.0 mi ESE 13.8 mph - N/A   Clear
9:53 PM 72.0 °F 55.9 °F 57% 29.83 in 10.0 mi ESE 12.7 mph - N/A   Clear
10:53 PM 69.1 °F 54.0 °F 58% 29.86 in 10.0 mi ESE 11.5 mph - N/A   Clear
11:53 PM 68.0 °F 53.1 °F 59% 29.86 in 10.0 mi ESE 10.4 mph - N/A   Clear